sat.trackr.live / text

‹ back to catalog

STARLINK-6247

NORAD 57086 · 2023-088AQ

PAYLOAD ACTIVE UNKNOWN

§ Identity

Operator
Country
US
Launch date
2023-06-22
Launch site
AFWTR
Launch vehicle
Mass (kg)
RCS (m²)

Purposes: comms

External: N2YO · Heavens-Above · Gunter

§ Orbital elements

Epoch: 2026-09-20T21:10:49.753920Z

Period
94.27 min
Inclination
43.0041°
Eccentricity
0.0001633
Mean motion
15.27578270 rev/d
Perigee alt
481.9 km
Apogee alt
484.2 km
Semi-major
6,861.2 km
B*
2.3297e-5
RAAN
73.6855°
Arg perigee
254.2743°
Mean anomaly
105.7929°
Rev number
18,035

§ Raw data

STARLINK-62471 57086U 23088AQ  26263.88252030  .00000379  00000+0  23297-4 0  99992 57086  43.0041  73.6855 0001633 254.2743 105.7929 15.27578270180358

JSON: /api/v1/satellites/57086 · /tle

For live sub-satellite position, see the globe view (requires WebGL).

§ Visibility from observer

Set your observer location to see the next 7 days of passes ≥ 10°. The values pass through the URL so the page stays shareable.

No JS? Fill the form by hand. The geolocation button needs JavaScript.